Location: Bacharowice
(49.9333°N, 19.5833°E)
Time: 13:15:40
(UTC+00:00)

ATLAS CENTAUR R/B - Pass Details

Date: 11 May 2021
Orbit: 472 x 671 km, 64.6° (Epoch: 13 June)

Event Time Altitude Azimuth Distance (km) Brightness Sun altitude
Exits shadow 23:38:19 48° 272° (W) 651 1.5 -20.6°
Maximum altitude 23:38:59 57° 314° (NW) 588 1.5 -20.6°
Drops below altitude 10° 23:42:47 10° 34° (NE) 1,735 4.9 -20.4°
Sets 23:45:03 0° 39° (NE) 2,656 6.0 -20.3°
